This demonstration page uses our WeatherBlox Daily Observations layout. Learn more.

Left ArrowRight Arrow

Hourly Observations for December 28, 2019

Temp ( °F °C ) Dew Point ( °F °C ) Humidity (%) Winds ( mph kmh ) Pressure ( in mb ) Visibility ( mi km ) Precip ( " mm )
12:53 am 00:53 Clear 46 7.8 28 -2.2 50 50 NNW 8 13 30.10 1019 10 16 0.00 0.00
1:53 am 01:53 Clear 44 6.7 29 -1.7 55 55 Calm 30.12 1020 10 16 0.00 0.00
2:53 am 02:53 Clear 42 5.6 29 -1.7 60 60 Calm 30.13 1020 10 16 0.00 0.00
3:53 am 03:53 Clear 42 5.6 29 -1.7 60 60 NW 5 7 30.13 1020 10 16 0.00 0.00
4:53 am 04:53 Clear 46 7.8 29 -1.7 51 51 W 3 6 30.13 1020 10 16 0.00 0.00
5:53 am 05:53 Clear 47 8.3 29 -1.7 50 50 NW 5 7 30.14 1021 10 16 0.00 0.00
6:53 am 06:53 Clear 48 8.9 28 -2.2 46 46 NNW 8 13 30.15 1021 10 16 0.00 0.00
7:53 am 07:53 Sunny 48 8.9 29 -1.7 48 48 WNW 5 7 30.16 1021 10 16 0.00 0.00
8:53 am 08:53 Sunny 51 10.6 28 -2.2 41 41 NNW 6 9 30.18 1022 10 16 0.00 0.00
9:53 am 09:53 Sunny 56 13.3 28 -2.2 34 34 N 12 19 30.17 1022 10 16 0.00 0.00
10:53 am 10:53 Sunny 59 15 27 -2.8 29 29 N 9 15 30.16 1021 10 16 0.00 0.00
11:53 am 11:53 Sunny 62 16.7 29 -1.7 29 29 N 9 15 30.13 1020 10 16 0.00 0.00
12:53 pm 12:53 Sunny 63 17.2 28 -2.2 27 27 N 9 15 30.10 1019 10 16 0.00 0.00
1:53 pm 13:53 Sunny 65 18.3 29 -1.7 26 26 N 9 15 30.07 1018 10 16 0.00 0.00
2:53 pm 14:53 Sunny 64 17.8 30 -1.1 28 28 N 7 11 30.07 1018 10 16 0.00 0.00
3:53 pm 15:53 Sunny 64 17.8 32 0 30 30 N 6 9 30.07 1018 10 16 0.00 0.00
4:53 pm 16:53 Clear 60 15.6 32 0 35 35 Calm 30.07 1018 10 16 0.00 0.00
5:53 pm 17:53 Clear 55 12.8 33 0.6 44 44 Calm 30.08 1019 10 16 0.00 0.00
6:53 pm 18:53 Clear 52 11.1 34 1.1 50 50 NW 6 9 30.09 1019 10 16 0.00 0.00
7:53 pm 19:53 Clear 50 10 36 2.2 59 59 Calm 30.09 1019 10 16 0.00 0.00
8:53 pm 20:53 Clear 51 10.6 37 2.8 59 59 Calm 30.09 1019 10 16 0.00 0.00
9:53 pm 21:53 Clear 47 8.3 37 2.8 69 69 Calm 30.10 1019 9 14 0.00 0.00
10:53 pm 22:53 Clear 46 7.8 37 2.8 71 71 Calm 30.11 1020 10 16 0.00 0.00
11:53 pm 23:53 Clear 46 7.8 38 3.3 73 73 Calm 30.10 1019 9 14 0.00 0.00

Powered by AerisWeather